• In Lithuania
  • List of Countries
  • For 7 days
  • Water Temperature
  • Satellite Maps
  • Weather Map
  • Weather Widgets
  • user-avatar
    Login

    Hourly Weather Pravoegorlykskiy

    Today, 14 August, Tuesday

    Time Temperature Precipitation Wind Pressure Humidity
    00:00 +23°C° 0 mm 1 mps 750 mmHg 40%
    01:00 +23°C° 0 mm 1 mps 750 mmHg 41%
    02:00 +22°C° 0 mm 1 mps 750 mmHg 42%
    03:00 +21°C° 0 mm 2 mps 750 mmHg 47%
    04:00 +21°C° 0 mm 2 mps 750 mmHg 49%
    05:00 +20°C° 0 mm 2 mps 750 mmHg 51%
    06:00 +20°C° 0 mm 2 mps 750 mmHg 53%
    07:00 +24°C° 0 mm 2 mps 750 mmHg 47%
    08:00 +26°C° 0 mm 1 mps 750 mmHg 41%
    09:00 +28°C° 0 mm 1 mps 750 mmHg 35%
    10:00 +30°C° 0 mm 1 mps 750 mmHg 32%
    11:00 +31°C° 0 mm 1 mps 750 mmHg 29%
    12:00 +34°C° 0 mm 2 mps 750 mmHg 26%
    13:00 +34°C° 0 mm 2 mps 750 mmHg 25%
    14:00 +34°C° 0 mm 2 mps 750 mmHg 24%
    15:00 +35°C° 0 mm 2 mps 749 mmHg 23%
    16:00 +35°C° 0 mm 2 mps 749 mmHg 25%
    17:00 +34°C° 0 mm 2 mps 749 mmHg 26%
    18:00 +34°C° 0 mm 2 mps 749 mmHg 28%
    19:00 +31°C° 0 mm 2 mps 749 mmHg 30%
    20:00 +29°C° 0 mm 2 mps 750 mmHg 33%
    21:00 +27°C° 0 mm 2 mps 750 mmHg 36%
    22:00 +26°C° 0 mm 1 mps 750 mmHg 38%
    23:00 +26°C° 0 mm 1 mps 750 mmHg 40%

    Tomorrow, 15 August, Wednesday

    Time Temperature Precipitation Wind Pressure Humidity
    00:00 +25°C° 0 mm 1 mps 750 mmHg 43%
    01:00 +25°C° 0 mm 1 mps 750 mmHg 44%
    02:00 +24°C° 0 mm 1 mps 750 mmHg 46%
    03:00 +22°C° 0 mm 0 mps 750 mmHg 47%
    04:00 +24°C° 0 mm 1 mps 750 mmHg 48%
    05:00 +24°C° 0 mm 1 mps 750 mmHg 48%
    06:00 +24°C° 0 mm 1 mps 750 mmHg 49%
    07:00 +26°C° 0 mm 2 mps 750 mmHg 43%
    08:00 +29°C° 0 mm 2 mps 750 mmHg 37%
    09:00 +31°C° 0 mm 3 mps 750 mmHg 32%
    10:00 +34°C° 0 mm 4 mps 750 mmHg 29%
    11:00 +35°C° 0 mm 4 mps 750 mmHg 27%
    12:00 +36°C° 0 mm 5 mps 750 mmHg 24%
    13:00 +36°C° 0 mm 5 mps 749 mmHg 24%
    14:00 +37°C° 0 mm 5 mps 749 mmHg 23%
    15:00 +37°C° 0 mm 5 mps 749 mmHg 23%
    16:00 +36°C° 0 mm 5 mps 749 mmHg 25%
    17:00 +36°C° 0 mm 4 mps 749 mmHg 27%
    18:00 +35°C° 0 mm 4 mps 749 mmHg 29%
    19:00 +33°C° 0 mm 4 mps 749 mmHg 32%
    20:00 +30°C° 0 mm 3 mps 749 mmHg 36%
    21:00 +28°C° 0 mm 3 mps 749 mmHg 39%
    22:00 +27°C° 0 mm 3 mps 749 mmHg 40%
    23:00 +27°C° 0 mm 3 mps 749 mmHg 42%

    Day after tomorrow, 16 August, Thursday

    Time Temperature Precipitation Wind Pressure Humidity
    00:00 +26°C° 0 mm 4 mps 749 mmHg 43%
    01:00 +25°C° 0 mm 3 mps 749 mmHg 45%
    02:00 +25°C° 0 mm 3 mps 749 mmHg 47%
    03:00 +24°C° 0 mm 3 mps 749 mmHg 49%
    04:00 +24°C° 0 mm 3 mps 749 mmHg 50%
    05:00 +24°C° 0 mm 3 mps 749 mmHg 51%
    06:00 +22°C° 0 mm 3 mps 749 mmHg 52%
    07:00 +26°C° 0 mm 5 mps 749 mmHg 47%
    08:00 +28°C° 0 mm 6 mps 750 mmHg 42%
    09:00 +30°C° 0 mm 7 mps 750 mmHg 36%
    10:00 +32°C° 0 mm 7 mps 749 mmHg 34%
    11:00 +33°C° 0 mm 7 mps 749 mmHg 31%
    12:00 +35°C° 0 mm 8 mps 749 mmHg 29%
    13:00 +35°C° 0 mm 7 mps 748 mmHg 28%
    14:00 +35°C° 0 mm 7 mps 748 mmHg 28%
    15:00 +36°C° 0 mm 7 mps 748 mmHg 27%
    16:00 +35°C° 0 mm 6 mps 748 mmHg 29%
    17:00 +35°C° 0 mm 5 mps 747 mmHg 30%
    18:00 +34°C° 0 mm 4 mps 747 mmHg 32%
    19:00 +33°C° 0 mm 4 mps 747 mmHg 34%
    20:00 +30°C° 0 mm 4 mps 748 mmHg 36%
    21:00 +28°C° 0 mm 4 mps 748 mmHg 38%
    22:00 +28°C° 0 mm 4 mps 748 mmHg 39%
    23:00 +27°C° 0 mm 4 mps 748 mmHg 41%

    17 August, Friday

    Time Temperature Precipitation Wind Pressure Humidity
    00:00 +27°C° 0 mm 4 mps 748 mmHg 42%
    01:00 +26°C° 0 mm 4 mps 748 mmHg 45%
    02:00 +25°C° 0 mm 4 mps 748 mmHg 49%
    03:00 +25°C° 0 mm 4 mps 748 mmHg 52%
    04:00 +23°C° 0 mm 4 mps 748 mmHg 54%
    05:00 +24°C° 0 mm 3 mps 748 mmHg 55%
    06:00 +24°C° 0 mm 3 mps 748 mmHg 57%
    07:00 +26°C° 0 mm 4 mps 748 mmHg 50%
    08:00 +28°C° 0 mm 4 mps 748 mmHg 43%
    09:00 +30°C° 0 mm 5 mps 748 mmHg 36%
    10:00 +33°C° 0 mm 5 mps 748 mmHg 32%
    11:00 +34°C° 0 mm 6 mps 747 mmHg 28%
    12:00 +36°C° 0 mm 6 mps 747 mmHg 24%
    13:00 +36°C° 0 mm 6 mps 747 mmHg 24%
    14:00 +38°C° 0 mm 6 mps 746 mmHg 23%
    15:00 +37°C° 0 mm 5 mps 746 mmHg 22%
    16:00 +37°C° 0 mm 5 mps 746 mmHg 23%
    17:00 +36°C° 0 mm 4 mps 746 mmHg 24%
    18:00 +36°C° 0 mm 3 mps 746 mmHg 26%
    19:00 +34°C° 0.1 mm 3 mps 746 mmHg 27%
    20:00 +31°C° 0.1 mm 3 mps 746 mmHg 29%
    21:00 +29°C° 0.1 mm 3 mps 746 mmHg 31%
    22:00 +29°C° 0.3 mm 3 mps 746 mmHg 32%
    23:00 +28°C° 0.3 mm 3 mps 746 mmHg 33%

    18 August, Saturday

    Time Temperature Precipitation Wind Pressure Humidity
    00:00 +28°C° 0.3 mm 3 mps 746 mmHg 33%
    01:00 +27°C° 0.1 mm 3 mps 746 mmHg 36%
    02:00 +27°C° 0.1 mm 3 mps 746 mmHg 38%
    03:00 +27°C° 0.1 mm 3 mps 746 mmHg 40%
    04:00 +26°C° 0.4 mm 2 mps 746 mmHg 46%
    05:00 +26°C° 0.4 mm 2 mps 746 mmHg 52%
    06:00 +26°C° 0.4 mm 2 mps 747 mmHg 58%
    07:00 +26°C° 1 mm 2 mps 747 mmHg 57%
    08:00 +27°C° 1 mm 2 mps 747 mmHg 56%
    09:00 +28°C° 1 mm 2 mps 747 mmHg 56%
    10:00 +29°C° 0.2 mm 2 mps 747 mmHg 52%
    11:00 +30°C° 0.2 mm 3 mps 747 mmHg 48%
    12:00 +33°C° 0.2 mm 3 mps 747 mmHg 44%
    13:00 +34°C° 0.1 mm 3 mps 747 mmHg 39%
    14:00 +35°C° 0.1 mm 4 mps 747 mmHg 33%
    15:00 +36°C° 0.1 mm 4 mps 746 mmHg 28%
    16:00 +36°C° 0 mm 3 mps 747 mmHg 28%
    17:00 +35°C° 0 mm 3 mps 747 mmHg 29%
    18:00 +35°C° 0 mm 2 mps 747 mmHg 29%
    19:00 +32°C° 0 mm 2 mps 747 mmHg 31%
    20:00 +30°C° 0 mm 2 mps 747 mmHg 33%
    21:00 +28°C° 0 mm 2 mps 747 mmHg 35%
    22:00 +28°C° 0 mm 3 mps 747 mmHg 37%
    23:00 +27°C° 0 mm 3 mps 748 mmHg 39%

    19 August, Sunday

    Time Temperature Precipitation Wind Pressure Humidity
    00:00 +27°C° 0 mm 4 mps 748 mmHg 40%
    01:00 +26°C° 0 mm 4 mps 748 mmHg 42%
    02:00 +26°C° 0 mm 4 mps 748 mmHg 44%
    03:00 +25°C° 0 mm 4 mps 748 mmHg 45%
    04:00 +25°C° 0 mm 4 mps 748 mmHg 47%
    05:00 +23°C° 0 mm 4 mps 749 mmHg 48%
    06:00 +23°C° 0 mm 4 mps 749 mmHg 50%
    07:00 +26°C° 0 mm 5 mps 749 mmHg 45%
    08:00 +27°C° 0 mm 5 mps 749 mmHg 41%
    09:00 +29°C° 0 mm 6 mps 749 mmHg 37%
    10:00 +30°C° 0 mm 6 mps 749 mmHg 35%
    11:00 +32°C° 0 mm 6 mps 749 mmHg 33%
    12:00 +34°C° 0 mm 6 mps 749 mmHg 30%
    13:00 +34°C° 0 mm 6 mps 748 mmHg 29%
    14:00 +34°C° 0 mm 6 mps 748 mmHg 29%
    15:00 +34°C° 0 mm 6 mps 748 mmHg 28%
    16:00 +34°C° 0 mm 6 mps 748 mmHg 28%
    17:00 +33°C° 0 mm 6 mps 748 mmHg 29%
    18:00 +32°C° 0 mm 6 mps 748 mmHg 30%
    19:00 +29°C° 0 mm 5 mps 749 mmHg 29%
    20:00 +28°C° 0 mm 5 mps 749 mmHg 29%
    21:00 +26°C° 0 mm 5 mps 749 mmHg 28%
    22:00 +26°C° 0 mm 5 mps 749 mmHg 28%
    23:00 +25°C° 0 mm 5 mps 749 mmHg 28%
    Show more